Tracking 31027 objects as of 19-Jul-2025
HD Live streaming from Space Station
objects crossing your sky now

COSMOS 1470

Track COSMOS 1470 now!
10-day predictions
COSMOS 1470 is classified as:


NORAD ID: 14147
Int'l Code: 1983-061A
Perigee: 459.3 km
Apogee: 473.3 km
Inclination: 82.5 °
Period: 93.8 minutes
Semi major axis: 6837 km
RCS: 8.3388 m2 (large)
Launch date: June 23, 1983
Source: Commonwealth of Independent States (former USSR) (CIS)
Launch site: PLESETSK MISSILE AND SPACE COMPLEX (PKMTR)
Your satellite tracking list
COSMOS 2502
Track 1 satellite(s)




NASA's NSSDC Master Catalog

Two Line Element Set (TLE):
1 14147U 83061A   25199.51822492  .00009012  00000-0  25909-3 0  9994
2 14147  82.4728 357.9200 0010257 120.0430 240.1832 15.35592154 51704
Source of the keplerian elements: AFSPC